Weather History for KVTP - September, 2013

Change the Weather History Date:

Tuesday, September 17, 2013

  Actual Average (KTAD) Record (KTAD)
Temperature  
Mean Temperature 53 °F 64 °F  
Max Temperature 62 °F 79 °F 93 °F (1983)
Min Temperature 44 °F 48 °F 30 °F (1971)
Degree Days  
Heating Degree Days 12 3  
Month to date heating degree days 31  
Since 1 July heating degree days 41  
Cooling Degree Days 0 2  
Month to date cooling degree days 60  
Year to date cooling degree days 702  
Growing Degree Days 3 (Base 50)    
Moisture  
Dew Point 43 °F    
Average Humidity 75    
Maximum Humidity 93    
Minimum Humidity 39    
Precipitation  
Precipitation 0.00 in 0.04 in 0.59 in (2001)
Month to date precipitation 0.80  
Year to date precipitation 11.26  
Sea Level Pressure  
Sea Level Pressure 30.39 in    
Wind  
Wind Speed 11 mph (SW)    
Max Wind Speed 21 mph    
Max Gust Speed 30 mph    
Visibility 9 miles    
Events Rain , Thunderstorm    
T = Trace of Precipitation, MM = Missing Value Source: NWS Daily Summary

Daily Weather History Graph

Daily Weather History Graph

Search for Another Location

Airport or City:

Trip Planner

Search our weather history database for the weather conditions in past years. The results will help you decide how hot, cold, wet, or windy it might be!

Date:

Astronomy

Sep. 17, 2013 Rise Set
Actual Time 6:44 AM MDT 7:04 PM MDT
Civil Twilight 6:18 AM MDT 7:31 PM MDT
Nautical Twilight 5:47 AM MDT 8:01 PM MDT
Astronomical Twilight 5:16 AM MDT 8:32 PM MDT
Moon 5:52 PM MDT (9/17) 4:43 AM MDT (9/17)
Length of Visible Light 13h 12m
Length of Day
12h 20m
Waxing Gibbous, 96% of the Moon is Illuminated
Sep 17
Waxing Gibbous
Sep 19
Full
Sep 26
Last Quarter
Oct 4
New
Oct 11
First Quarter

Hourly Weather History & Observations

Time (MDT) Temp. Windchill Dew Point Humidity Pressure Visibility Wind Dir Wind Speed Gust Speed Precip Events Conditions
12:14 AM 44.6 °F 39.2 °F 42.8 °F 93% 30.47 in 10.0 mi SW 10.4 mph - N/A   Overcast
12:35 AM 44.6 °F 38.4 °F 42.8 °F 93% 30.46 in 10.0 mi SW 12.7 mph 24.2 mph N/A   Overcast
12:55 AM 46.4 °F 40.4 °F 42.8 °F 87% 30.46 in 10.0 mi SW 13.8 mph 29.9 mph N/A Thunderstorm Overcast
1:15 AM 46.4 °F 41.1 °F 42.8 °F 87% 30.45 in 10.0 mi SW 11.5 mph 21.9 mph N/A   Overcast
1:35 AM 46.4 °F 41.5 °F 42.8 °F 87% 30.45 in 10.0 mi WSW 10.4 mph 19.6 mph N/A   Overcast
1:55 AM 44.6 °F 39.7 °F 42.8 °F 93% 30.45 in 10.0 mi WSW 9.2 mph 21.9 mph N/A   Overcast
2:14 AM 44.6 °F 39.2 °F 42.8 °F 93% 30.44 in 10.0 mi SW 10.4 mph 21.9 mph N/A   Overcast
2:35 AM 44.6 °F 39.2 °F 42.8 °F 93% 30.44 in 7.0 mi SW 10.4 mph 23.0 mph N/A   Overcast
2:55 AM 44.6 °F 39.2 °F 42.8 °F 93% 30.43 in 5.0 mi SW 10.4 mph 16.1 mph N/A   Overcast
3:14 AM 44.6 °F 37.8 °F 42.8 °F 93% 30.43 in 7.0 mi SW 15.0 mph 23.0 mph N/A   Overcast
3:34 AM 44.6 °F 38.4 °F 42.8 °F 93% 30.43 in 10.0 mi SW 12.7 mph 24.2 mph N/A   Overcast
3:54 AM 44.6 °F 38.4 °F 42.8 °F 93% 30.42 in 10.0 mi SW 12.7 mph 24.2 mph N/A   Overcast
4:13 AM 44.6 °F 40.2 °F 42.8 °F 93% 30.42 in 10.0 mi SW 8.1 mph 20.7 mph N/A   Mostly Cloudy
4:35 AM 44.6 °F 37.8 °F 42.8 °F 93% 30.42 in 4.0 mi SW 15.0 mph 23.0 mph N/A   Mostly Cloudy
4:55 AM 44.6 °F 38.4 °F 42.8 °F 93% 30.41 in 5.0 mi SW 12.7 mph 21.9 mph N/A   Mostly Cloudy
5:15 AM 44.6 °F 38.8 °F 42.8 °F 93% 30.41 in 7.0 mi SW 11.5 mph 25.3 mph N/A   Mostly Cloudy
5:35 AM 44.6 °F 39.7 °F 42.8 °F 93% 30.42 in 2.5 mi WSW 9.2 mph 17.3 mph N/A   Mostly Cloudy
5:53 AM 44.6 °F 39.2 °F 42.8 °F 93% 30.42 in 7.0 mi SW 10.4 mph 20.7 mph N/A   Mostly Cloudy
6:14 AM 44.6 °F 39.7 °F 42.8 °F 93% 30.42 in 5.0 mi WSW 9.2 mph 18.4 mph N/A   Mostly Cloudy
6:35 AM 44.6 °F 39.2 °F 42.8 °F 93% 30.43 in 4.0 mi SW 10.4 mph 20.7 mph N/A   Mostly Cloudy
6:54 AM 44.6 °F 38.8 °F 42.8 °F 93% 30.43 in 10.0 mi SW 11.5 mph 19.6 mph N/A   Scattered Clouds
7:13 AM 44.6 °F 38.4 °F 42.8 °F 93% 30.43 in 5.0 mi SW 12.7 mph 21.9 mph N/A   Scattered Clouds
7:34 AM 44.6 °F 38.4 °F 42.8 °F 93% 30.44 in 10.0 mi WSW 12.7 mph 20.7 mph N/A   Mostly Cloudy
7:55 AM 46.4 °F 40.7 °F 42.8 °F 87% 30.44 in 10.0 mi SW 12.7 mph 21.9 mph N/A   Mostly Cloudy
8:14 AM 46.4 °F 40.7 °F 42.8 °F 87% 30.44 in 10.0 mi SW 12.7 mph 23.0 mph N/A   Mostly Cloudy
8:34 AM 46.4 °F 40.4 °F 44.6 °F 93% 30.44 in 10.0 mi SW 13.8 mph 21.9 mph N/A   Overcast
8:55 AM 48.2 °F - 44.6 °F 87% 30.44 in 10.0 mi SW 10.4 mph 18.4 mph N/A   Scattered Clouds
9:15 AM 50.0 °F - 44.6 °F 82% 30.44 in 10.0 mi WSW 9.2 mph 19.6 mph N/A   Mostly Cloudy
9:34 AM 51.8 °F - 46.4 °F 82% 30.44 in 10.0 mi SW 11.5 mph 19.6 mph N/A   Mostly Cloudy
9:54 AM 51.8 °F - 46.4 °F 82% 30.44 in 10.0 mi WSW 10.4 mph 18.4 mph N/A   Mostly Cloudy
10:13 AM 51.8 °F - 46.4 °F 82% 30.43 in 10.0 mi SW 15.0 mph 25.3 mph N/A   Mostly Cloudy
10:35 AM 53.6 °F - 46.4 °F 77% 30.43 in 10.0 mi SW 17.3 mph 25.3 mph N/A   Scattered Clouds
10:54 AM 53.6 °F - 44.6 °F 72% 30.43 in 10.0 mi SW 20.7 mph 26.5 mph N/A Thunderstorm Thunderstorm
11:13 AM 55.4 °F - 44.6 °F 67% 30.43 in 10.0 mi SW 11.5 mph 21.9 mph N/A   Scattered Clouds
11:33 AM 57.2 °F - 46.4 °F 67% 30.43 in 10.0 mi WSW 9.2 mph 26.5 mph N/A   Clear
11:54 AM 59.0 °F - 46.4 °F 63% 30.42 in 10.0 mi WSW 11.5 mph 20.7 mph N/A   Scattered Clouds
12:14 PM 59.0 °F - 44.6 °F 59% 30.42 in 10.0 mi SW 11.5 mph 19.6 mph N/A   Scattered Clouds
12:35 PM 59.0 °F - 44.6 °F 59% 30.41 in 10.0 mi WSW 8.1 mph 20.7 mph N/A   Scattered Clouds
12:54 PM 60.8 °F - 42.8 °F 52% 30.40 in 10.0 mi SW 13.8 mph 24.2 mph N/A Thunderstorm Thunderstorm
1:15 PM 60.8 °F - 42.8 °F 52% 30.40 in 10.0 mi SW 11.5 mph 19.6 mph N/A   Scattered Clouds
1:34 PM 62.6 °F - 44.6 °F 52% 30.39 in 10.0 mi SW 8.1 mph 21.9 mph N/A   Clear
1:53 PM 62.6 °F - 42.8 °F 48% 30.38 in 10.0 mi SW 10.4 mph 18.4 mph N/A   Clear
2:14 PM 62.6 °F - 42.8 °F 48% 30.37 in 10.0 mi WSW 6.9 mph - N/A Thunderstorm Clear
2:35 PM 62.6 °F - 42.8 °F 48% 30.37 in 10.0 mi SW 9.2 mph 18.4 mph N/A   Clear
2:54 PM 62.6 °F - 41.0 °F 45% 30.36 in 10.0 mi SW 13.8 mph 24.2 mph N/A   Scattered Clouds
3:14 PM 62.6 °F - 39.2 °F 42% 30.36 in 10.0 mi SW 11.5 mph 21.9 mph N/A   Scattered Clouds
3:35 PM 62.6 °F - 37.4 °F 39% 30.35 in 10.0 mi WSW 5.8 mph 20.7 mph N/A   Clear
3:55 PM 59.0 °F - 39.2 °F 48% 30.34 in 10.0 mi WSW 5.8 mph 17.3 mph N/A   Scattered Clouds
4:14 PM 59.0 °F - 41.0 °F 51% 30.34 in 10.0 mi SW 11.5 mph 19.6 mph N/A   Scattered Clouds
4:33 PM 62.6 °F - 41.0 °F 45% 30.34 in 10.0 mi WSW 5.8 mph - N/A   Scattered Clouds
4:54 PM 59.0 °F - 41.0 °F 51% 30.34 in 10.0 mi SW 8.1 mph 20.7 mph N/A   Mostly Cloudy
5:14 PM 55.4 °F - 39.2 °F 54% 30.33 in 10.0 mi WSW 9.2 mph - N/A   Mostly Cloudy
5:35 PM 51.8 °F - 41.0 °F 67% 30.34 in 10.0 mi SW 10.4 mph 20.7 mph N/A   Overcast
5:54 PM 53.6 °F - 41.0 °F 62% 30.33 in 10.0 mi WSW 5.8 mph - N/A Rain Light Rain
6:15 PM 53.6 °F - 41.0 °F 62% 30.32 in 10.0 mi SW 5.8 mph - N/A   Scattered Clouds
6:35 PM 53.6 °F - 42.8 °F 67% 30.31 in 10.0 mi WSW 5.8 mph - N/A   Clear
6:55 PM 51.8 °F - 41.0 °F 67% 30.31 in 10.0 mi SW 5.8 mph - N/A   Clear
7:14 PM 50.0 °F - 41.0 °F 71% 30.31 in 10.0 mi SW 8.1 mph - N/A   Clear
7:32 PM 51.8 °F - 42.8 °F 71% 30.31 in 10.0 mi SW 13.8 mph 21.9 mph N/A   Clear
7:50 PM 51.8 °F - 42.8 °F 71% 30.31 in 10.0 mi SW 15.0 mph 25.3 mph N/A   Clear
8:15 PM 50.0 °F - 42.8 °F 76% 30.32 in 10.0 mi SW 16.1 mph 24.2 mph N/A   Clear
8:34 PM 51.8 °F - 42.8 °F 71% 30.33 in 10.0 mi SW 15.0 mph 21.9 mph N/A   Clear
8:54 PM 50.0 °F - 42.8 °F 76% 30.33 in 10.0 mi SW 11.5 mph 20.7 mph N/A   Clear
9:15 PM 50.0 °F - 42.8 °F 76% 30.33 in 10.0 mi SW 10.4 mph 18.4 mph N/A   Clear
9:35 PM 50.0 °F - 42.8 °F 76% 30.32 in 10.0 mi SW 10.4 mph 19.6 mph N/A   Clear
9:53 PM 50.0 °F - 42.8 °F 76% 30.32 in 10.0 mi SW 12.7 mph 23.0 mph N/A   Clear
10:15 PM 48.2 °F - 42.8 °F 82% 30.32 in 10.0 mi SW 8.1 mph 16.1 mph N/A   Clear
10:35 PM 48.2 °F - 42.8 °F 82% 30.31 in 10.0 mi SW 12.7 mph 26.5 mph N/A   Clear
10:54 PM 48.2 °F - 42.8 °F 82% 30.31 in 10.0 mi SW 11.5 mph 24.2 mph N/A   Clear
11:15 PM 48.2 °F - 42.8 °F 82% 30.32 in 10.0 mi SW 10.4 mph 18.4 mph N/A   Clear
11:35 PM 48.2 °F - 42.8 °F 82% 30.31 in 10.0 mi SW 11.5 mph 18.4 mph N/A   Clear
11:54 PM 46.4 °F 41.1 °F 42.8 °F 87% 30.31 in 10.0 mi SW 11.5 mph 21.9 mph N/A   Clear